User: anonymous   Login
Location: SAPM � Hemmingford
(45.0500°N, 73.5833°W)
Time: 06:39:22
(UTC-04:00)
Language:

Cosmos 1674 Rocket - Orbit

View from above orbital plane
View from above orbital plane
View from above satellite
View from above satellite

Ground track
Ground track

The orbit data is extracted from the following two-line orbital elements,

1 15945U 85069B   15087.77626596  .00000663  00000-0  77111-4 0  9997
2 15945 082.5301 172.7997 0021385 080.7095 279.6537 14.83645562600701
Epoch (UTC): 28 March 2015 18:37:49
Eccentricity: 0.0021385
inclination: 82.5301°
perigee height: 603 km
apogee height: 633 km
right ascension of ascending node: 172.7997°
argument of perigee: 80.7095°
revolutions per day: 14.83645562
mean anomaly at epoch: 279.6537°
orbit number at epoch: 60070

The dashed part of the orbit path shows where the satellite is in the earth's shadow,  

DLR